Time,TemperatureF,DewpointF,PressureIn,WindDirection,WindDirectionDegrees,WindSpeedMPH,WindSpeedGustMPH,Humidity,HourlyPrecipIn,Conditions,Clouds,dailyrainin,SoftwareType,DateUTC
2013-04-22 00:09:00,45.8,38.0,30.52,East,83,5.0,9.0,75,0.00,,,0.00,weatherlink.com 1.10,2013-04-22 04:09:00,
2013-04-22 00:23:00,45.4,38.0,30.52,ENE,58,3.0,10.0,75,0.00,,,0.00,weatherlink.com 1.10,2013-04-22 04:23:00,
2013-04-22 00:38:00,44.8,38.0,30.52,NE,42,1.0,5.0,76,0.00,,,0.00,weatherlink.com 1.10,2013-04-22 04:38:00,
2013-04-22 00:53:00,44.1,37.0,30.52,NE,37,1.0,4.0,77,0.00,,,0.00,weatherlink.com 1.10,2013-04-22 04:53:00,
2013-04-22 01:08:00,43.6,37.0,30.52,NE,37,2.0,3.0,78,0.00,,,0.00,weatherlink.com 1.10,2013-04-22 05:08:00,
2013-04-22 01:23:00,43.0,37.0,30.52,North,1,1.0,4.0,79,0.00,,,0.00,weatherlink.com 1.10,2013-04-22 05:23:00,
2013-04-22 01:38:00,42.3,37.0,30.52,NE,37,1.0,4.0,80,0.00,,,0.00,weatherlink.com 1.10,2013-04-22 05:38:00,
2013-04-22 01:54:00,41.9,37.0,30.52,NE,45,2.0,5.0,82,0.00,,,0.00,weatherlink.com 1.10,2013-04-22 05:54:00,
2013-04-22 02:09:00,41.6,37.0,30.52,NNE,16,0.0,3.0,83,0.00,,,0.00,weatherlink.com 1.10,2013-04-22 06:09:00,
2013-04-22 02:24:00,41.4,37.0,30.51,North,5,1.0,3.0,83,0.00,,,0.00,weatherlink.com 1.10,2013-04-22 06:24:00,
2013-04-22 02:39:00,41.1,36.0,30.51,North,1,1.0,4.0,83,0.00,,,0.00,weatherlink.com 1.10,2013-04-22 06:39:00,
2013-04-22 02:54:00,40.8,36.0,30.51,North,1,2.0,3.0,84,0.00,,,0.00,weatherlink.com 1.10,2013-04-22 06:54:00,
2013-04-22 03:09:00,40.4,36.0,30.50,North,1,0.0,3.0,85,0.00,,,0.00,weatherlink.com 1.10,2013-04-22 07:09:00,
2013-04-22 03:24:00,39.8,36.0,30.50,North,1,2.0,3.0,86,0.00,,,0.00,weatherlink.com 1.10,2013-04-22 07:24:00,
2013-04-22 03:39:00,39.2,36.0,30.50,NNW,329,0.0,2.0,87,0.00,,,0.00,weatherlink.com 1.10,2013-04-22 07:39:00,
2013-04-22 03:54:00,38.9,36.0,30.49,NNW,329,3.0,3.0,88,0.00,,,0.00,weatherlink.com 1.10,2013-04-22 07:54:00,
2013-04-22 04:09:00,38.6,35.0,30.49,NNW,329,2.0,3.0,88,0.00,,,0.00,weatherlink.com 1.10,2013-04-22 08:09:00,
2013-04-22 04:24:00,38.4,36.0,30.49,NNW,329,0.0,3.0,89,0.00,,,0.00,weatherlink.com 1.10,2013-04-22 08:24:00,
2013-04-22 04:39:00,38.1,35.0,30.48,NW,320,3.0,4.0,89,0.00,,,0.00,weatherlink.com 1.10,2013-04-22 08:39:00,
2013-04-22 04:54:00,37.8,35.0,30.48,WNW,301,3.0,5.0,90,0.00,,,0.00,weatherlink.com 1.10,2013-04-22 08:54:00,
2013-04-22 05:09:00,37.5,35.0,30.48,NW,326,4.0,5.0,90,0.00,,,0.00,weatherlink.com 1.10,2013-04-22 09:09:00,
2013-04-22 05:24:00,37.5,35.0,30.48,NW,315,3.0,6.0,90,0.00,,,0.00,weatherlink.com 1.10,2013-04-22 09:24:00,
2013-04-22 05:39:00,37.4,35.0,30.48,NNW,332,3.0,7.0,90,0.00,,,0.00,weatherlink.com 1.10,2013-04-22 09:39:00,
2013-04-22 06:09:00,36.9,34.0,30.48,NNW,329,3.0,5.0,90,0.00,,,0.00,weatherlink.com 1.10,2013-04-22 10:09:00,
2013-04-22 06:25:00,36.6,34.0,30.49,NW,321,3.0,5.0,90,0.00,,,0.00,weatherlink.com 1.10,2013-04-22 10:25:00,
2013-04-22 06:39:00,36.5,34.0,30.49,NNW,340,3.0,5.0,90,0.00,,,0.00,weatherlink.com 1.10,2013-04-22 10:39:00,
2013-04-22 06:54:00,36.5,34.0,30.50,North,356,2.0,6.0,91,0.00,,,0.00,weatherlink.com 1.10,2013-04-22 10:54:00,
2013-04-22 07:09:00,36.9,34.0,30.50,NNW,339,5.0,6.0,90,0.00,,,0.00,weatherlink.com 1.10,2013-04-22 11:09:00,
2013-04-22 07:24:00,37.6,35.0,30.50,NNW,328,3.0,8.0,89,0.00,,,0.00,weatherlink.com 1.10,2013-04-22 11:24:00,
2013-04-22 07:39:00,38.5,35.0,30.50,North,351,8.0,8.0,88,0.00,,,0.00,weatherlink.com 1.10,2013-04-22 11:39:00,
2013-04-22 07:54:00,39.6,36.0,30.50,North,352,5.0,10.0,87,0.00,,,0.00,weatherlink.com 1.10,2013-04-22 11:54:00,
2013-04-22 08:09:00,40.6,37.0,30.50,NNW,335,4.0,11.0,85,0.00,,,0.00,weatherlink.com 1.10,2013-04-22 12:09:00,
2013-04-22 08:24:00,41.8,36.0,30.50,NW,326,7.0,12.0,81,0.00,,,0.00,weatherlink.com 1.10,2013-04-22 12:24:00,
2013-04-22 08:39:00,42.9,37.0,30.50,NNW,342,5.0,11.0,80,0.00,,,0.00,weatherlink.com 1.10,2013-04-22 12:39:00,
2013-04-22 08:55:00,44.2,37.0,30.49,North,350,6.0,13.0,77,0.00,,,0.00,weatherlink.com 1.10,2013-04-22 12:55:00,
2013-04-22 09:09:00,45.5,37.0,30.50,North,1,5.0,10.0,71,0.00,,,0.00,weatherlink.com 1.10,2013-04-22 13:09:00,
2013-04-22 09:24:00,46.0,36.0,30.50,NE,35,2.0,13.0,67,0.00,,,0.00,weatherlink.com 1.10,2013-04-22 13:24:00,
2013-04-22 09:40:00,46.5,36.0,30.50,North,360,5.0,14.0,66,0.00,,,0.00,weatherlink.com 1.10,2013-04-22 13:40:00,
2013-04-22 09:55:00,47.1,35.0,30.49,NNE,22,10.0,16.0,63,0.00,,,0.00,weatherlink.com 1.10,2013-04-22 13:55:00,
2013-04-22 10:10:00,48.1,36.0,30.50,WNW,298,5.0,13.0,63,0.00,,,0.00,weatherlink.com 1.10,2013-04-22 14:10:00,
2013-04-22 10:25:00,49.2,35.0,30.49,North,1,8.0,16.0,58,0.00,,,0.00,weatherlink.com 1.10,2013-04-22 14:25:00,
2013-04-22 10:40:00,49.5,34.0,30.50,NNW,332,9.0,14.0,56,0.00,,,0.00,weatherlink.com 1.10,2013-04-22 14:40:00,
2013-04-22 10:55:00,50.5,33.0,30.48,NW,322,11.0,13.0,51,0.00,,,0.00,weatherlink.com 1.10,2013-04-22 14:55:00,
2013-04-22 11:10:00,51.6,35.0,30.48,North,350,6.0,15.0,54,0.00,,,0.00,weatherlink.com 1.10,2013-04-22 15:10:00,
2013-04-22 11:25:00,51.8,34.0,30.47,NNW,333,4.0,16.0,50,0.00,,,0.00,weatherlink.com 1.10,2013-04-22 15:25:00,
2013-04-22 11:40:00,52.4,35.0,30.46,North,11,9.0,15.0,51,0.00,,,0.00,weatherlink.com 1.10,2013-04-22 15:40:00,
2013-04-22 11:55:00,53.2,33.0,30.45,NNW,345,8.0,13.0,47,0.00,,,0.00,weatherlink.com 1.10,2013-04-22 15:55:00,
2013-04-22 12:10:00,53.9,35.0,30.45,North,1,8.0,13.0,49,0.00,,,0.00,weatherlink.com 1.10,2013-04-22 16:10:00,
2013-04-22 12:25:00,54.3,35.0,30.44,North,1,12.0,13.0,49,0.00,,,0.00,weatherlink.com 1.10,2013-04-22 16:25:00,
2013-04-22 12:40:00,55.1,36.0,30.44,North,1,4.0,13.0,48,0.00,,,0.00,weatherlink.com 1.10,2013-04-22 16:40:00,
2013-04-22 12:55:00,56.2,35.0,30.43,NW,318,7.0,11.0,45,0.00,,,0.00,weatherlink.com 1.10,2013-04-22 16:55:00,
2013-04-22 13:10:00,56.2,35.0,30.42,North,1,2.0,13.0,45,0.00,,,0.00,weatherlink.com 1.10,2013-04-22 17:10:00,
2013-04-22 13:25:00,56.4,35.0,30.41,NE,43,8.0,16.0,45,0.00,,,0.00,weatherlink.com 1.10,2013-04-22 17:25:00,
2013-04-22 13:40:00,57.0,35.0,30.40,SSE,149,6.0,14.0,44,0.00,,,0.00,weatherlink.com 1.10,2013-04-22 17:40:00,
2013-04-22 13:55:00,57.4,37.0,30.40,NNE,22,9.0,15.0,46,0.00,,,0.00,weatherlink.com 1.10,2013-04-22 17:55:00,
2013-04-22 14:10:00,57.6,36.0,30.39,NNE,23,4.0,13.0,45,0.00,,,0.00,weatherlink.com 1.10,2013-04-22 18:10:00,
2013-04-22 14:25:00,58.2,39.0,30.38,North,359,5.0,12.0,50,0.00,,,0.00,weatherlink.com 1.10,2013-04-22 18:25:00,
2013-04-22 14:40:00,59.0,38.0,30.38,NW,326,8.0,14.0,46,0.00,,,0.00,weatherlink.com 1.10,2013-04-22 18:40:00,
2013-04-22 14:55:00,59.2,39.0,30.37,North,354,5.0,14.0,48,0.00,,,0.00,weatherlink.com 1.10,2013-04-22 18:55:00,
2013-04-22 15:11:00,59.8,39.0,30.36,NNE,32,11.0,16.0,47,0.00,,,0.00,weatherlink.com 1.10,2013-04-22 19:11:00,
2013-04-22 15:26:00,59.9,38.0,30.35,NNW,348,4.0,17.0,44,0.00,,,0.00,weatherlink.com 1.10,2013-04-22 19:26:00,
2013-04-22 15:41:00,60.4,39.0,30.35,North,352,10.0,13.0,45,0.00,,,0.00,weatherlink.com 1.10,2013-04-22 19:41:00,
2013-04-22 15:56:00,60.6,40.0,30.34,NE,34,4.0,12.0,47,0.00,,,0.00,weatherlink.com 1.10,2013-04-22 19:56:00,
2013-04-22 16:11:00,60.8,40.0,30.33,NNE,14,9.0,11.0,47,0.00,,,0.00,weatherlink.com 1.10,2013-04-22 20:11:00,
2013-04-22 16:26:00,60.9,40.0,30.33,NW,323,6.0,11.0,47,0.00,,,0.00,weatherlink.com 1.10,2013-04-22 20:26:00,
2013-04-22 16:41:00,61.0,39.0,30.32,North,1,4.0,11.0,45,0.00,,,0.00,weatherlink.com 1.10,2013-04-22 20:41:00,
2013-04-22 16:56:00,60.8,40.0,30.32,NNW,346,2.0,11.0,47,0.00,,,0.00,weatherlink.com 1.10,2013-04-22 20:56:00,
2013-04-22 17:11:00,61.1,39.0,30.31,East,83,11.0,11.0,45,0.00,,,0.00,weatherlink.com 1.10,2013-04-22 21:11:00,
2013-04-22 17:26:00,60.1,40.0,30.31,ENE,62,6.0,13.0,48,0.00,,,0.00,weatherlink.com 1.10,2013-04-22 21:26:00,
2013-04-22 17:41:00,59.5,40.0,30.32,North,6,6.0,11.0,48,0.00,,,0.00,weatherlink.com 1.10,2013-04-22 21:41:00,
2013-04-22 17:56:00,59.4,40.0,30.31,ENE,75,5.0,11.0,49,0.00,,,0.00,weatherlink.com 1.10,2013-04-22 21:56:00,
2013-04-22 18:11:00,59.2,40.0,30.31,North,359,5.0,12.0,50,0.00,,,0.00,weatherlink.com 1.10,2013-04-22 22:11:00,
2013-04-22 18:26:00,58.8,40.0,30.31,NNE,16,7.0,8.0,51,0.00,,,0.00,weatherlink.com 1.10,2013-04-22 22:26:00,
2013-04-22 18:41:00,57.7,41.0,30.32,NE,56,3.0,12.0,54,0.00,,,0.00,weatherlink.com 1.10,2013-04-22 22:41:00,
2013-04-22 18:56:00,57.0,41.0,30.32,NE,46,3.0,10.0,55,0.00,,,0.00,weatherlink.com 1.10,2013-04-22 22:56:00,
2013-04-22 19:11:00,56.7,40.0,30.32,NNE,30,5.0,10.0,55,0.00,,,0.00,weatherlink.com 1.10,2013-04-22 23:11:00,
2013-04-22 19:26:00,56.3,41.0,30.32,NNE,30,7.0,8.0,56,0.00,,,0.00,weatherlink.com 1.10,2013-04-22 23:26:00,
2013-04-22 19:41:00,55.9,40.0,30.33,NE,48,7.0,12.0,56,0.00,,,0.00,weatherlink.com 1.10,2013-04-22 23:41:00,
2013-04-22 19:56:00,55.5,41.0,30.33,NNE,22,2.0,7.0,58,0.00,,,0.00,weatherlink.com 1.10,2013-04-22 23:56:00,
2013-04-22 20:11:00,55.3,40.0,30.33,ENE,75,9.0,11.0,57,0.00,,,0.00,weatherlink.com 1.10,2013-04-23 00:11:00,
2013-04-22 20:26:00,55.1,40.0,30.33,North,6,2.0,10.0,58,0.00,,,0.00,weatherlink.com 1.10,2013-04-23 00:26:00,
2013-04-22 20:41:00,55.0,41.0,30.34,North,9,9.0,11.0,59,0.00,,,0.00,weatherlink.com 1.10,2013-04-23 00:41:00,
2013-04-22 20:56:00,54.8,41.0,30.34,NNE,30,1.0,7.0,60,0.00,,,0.00,weatherlink.com 1.10,2013-04-23 00:56:00,
2013-04-22 21:11:00,54.6,41.0,30.35,North,349,5.0,8.0,60,0.00,,,0.00,weatherlink.com 1.10,2013-04-23 01:11:00,
2013-04-22 21:26:00,54.4,41.0,30.35,NE,53,5.0,7.0,60,0.00,,,0.00,weatherlink.com 1.10,2013-04-23 01:26:00,
2013-04-22 21:41:00,54.1,41.0,30.35,NNE,29,1.0,12.0,62,0.00,,,0.00,weatherlink.com 1.10,2013-04-23 01:41:00,
2013-04-22 21:56:00,53.9,41.0,30.35,NW,313,5.0,9.0,62,0.00,,,0.00,weatherlink.com 1.10,2013-04-23 01:56:00,
2013-04-22 22:11:00,53.8,41.0,30.35,NNE,25,3.0,10.0,62,0.00,,,0.00,weatherlink.com 1.10,2013-04-23 02:11:00,
2013-04-22 22:26:00,53.5,42.0,30.35,NE,56,1.0,10.0,65,0.00,,,0.00,weatherlink.com 1.10,2013-04-23 02:26:00,
2013-04-22 22:41:00,52.6,42.0,30.35,North,3,6.0,8.0,68,0.00,,,0.00,weatherlink.com 1.10,2013-04-23 02:41:00,
2013-04-22 22:56:00,52.3,43.0,30.35,NE,51,3.0,9.0,70,0.00,,,0.00,weatherlink.com 1.10,2013-04-23 02:56:00,
2013-04-22 23:11:00,51.6,44.0,30.35,ENE,71,1.0,11.0,74,0.00,,,0.00,weatherlink.com 1.10,2013-04-23 03:11:00,
2013-04-22 23:26:00,51.1,44.0,30.34,NE,40,2.0,4.0,77,0.00,,,0.00,weatherlink.com 1.10,2013-04-23 03:26:00,
2013-04-22 23:41:00,50.9,44.0,30.34,North,1,4.0,6.0,77,0.00,,,0.00,weatherlink.com 1.10,2013-04-23 03:41:00,
2013-04-22 23:57:00,50.8,44.0,30.34,NNE,29,2.0,5.0,77,0.00,,,0.00,weatherlink.com 1.10,2013-04-23 03:57:00,